Regional Weather Roundup
Issued by NWS

Home | Current Version | Previous Version | Graphics & Text | Print | Product List | Glossary On
Versions: 1 2 3 4 5 6 7 8 9 10 11 12 13 14 15 16 17 18 19 20 21 22 23 24 25 26 27 28 29 30 31 32 33 34 35 36 37 38 39 40 41 42 43 44 45 46 47 48 49 50
560
ASUS43 KMPX 081310
RWRMN
WEATHER ROUNDUP FOR MINNESOTA
NATIONAL WEATHER SERVICE TWIN CITIES/CHANHASSEN MN
700 AM CST MON FEB 08 2016


NOTE: "FAIR" INDICATES FEW OR NO CLOUDS BELOW 12,000 FEET WITH NO
SIGNIFICANT WEATHER AND/OR OBSTRUCTIONS TO VISIBILITY. N/A MEANS
CURRENT SKY AND/OR WEATHER CONDITIONS ARE NOT AVAILABLE.

MNZ060>063-068>070-081400-
   Twin Cities Metro

CITY           SKY/WX    TMP DP  RH WIND       PRES   REMARKS
TWIN CITIES    FLURRIES  12   4  70 NW23G32   29.87R WCI  -7
ST PAUL        CLOUDY    13   4  67 NW17      29.88R WCI  -4
CRYSTAL        CLOUDY    12   3  67 NW23G29   29.88R WCI  -7
BLAINE         CLOUDY    12   7  79 NW18G26   29.86R WCI  -5
LAKEVILLE      CLOUDY    10   7  85 NW21G28   29.84R FOG     WCI  -9
EDEN PRAIRIE   CLOUDY    12   3  67 NW18G29   29.87R WCI  -6
SOUTH ST PAUL  CLOUDY    14   5  67 NW18G28   29.86R WCI  -3
LAKE ELMO      CLOUDY    14   9  79 NW10      29.85R WCI   1
$$
MNZ001>005-007-008-013>017-022>024-027-028-081400-
   Northwest Minnesota

CITY           SKY/WX    TMP DP  RH WIND       PRES   REMARKS
BEMIDJI        CLOUDY     3  -2  79 NW17      29.98R WCI -17
HALLOCK        CLOUDY    10   7  85 N24G30    30.14R HAZE    WCI -10
ROSEAU         LGT SNOW   9   1  72 NW18      30.06R WCI -10
WARROAD        LGT SNOW   5  -2  72 NW18G26   30.05R WCI -15
CROOKSTON      LGT SNOW  10   7  85 N26G35    30.13R WCI -11
FOSSTON        LGT SNOW   5   1  85 NW18      30.05R WCI -15
DETROIT LAKES  LGT SNOW  10   5  79 N22G37    30.02S WCI  -9
MOORHEAD         N/A     10   9  92 N33G41    30.12R WCI -13
PARK RAPIDS    MIX PCPN   6  -2  69 NW20G30   29.95R WCI -14
MAHNOMEN         N/A      8   3  81 N22G32    30.03F WCI -13
$$
MNZ006-009>011-018-025>026-081400-
   North Central Minnesota

CITY           SKY/WX    TMP DP  RH WIND       PRES   REMARKS
BAUDETTE       CLOUDY     3  -4  72 NW16      29.98R WCI -16
FLAG ISLAND    CLOUDY     3  -2  78 NW23      30.02R WCI -19
INTL FALLS     LGT SNOW   5   0  79 NW13G25   29.92R WCI -12
WASKISH        CLOUDY     1  -2  85 NW12      29.99R WCI -15
LONGVILLE      LGT SNOW   3   0  85 NW14G21   29.93R WCI -15
GRAND RAPIDS   CLOUDY     5  -2  72 NW18G26   29.87R WCI -15
CRANE LAKE     CLOUDY     7   3  85 NW10      29.88R WCI  -8
ORR            CLOUDY     5   0  78 NW10      29.83S WCI -10
COOK           FLURRIES   7   1  78 NW9       29.85R WCI  -7
WALKER         FLURRIES   4  -2  75 NW16G24   29.95R WCI -15
$$
MNZ012-019>021-037-081400-
   Northeast Minnesota

CITY           SKY/WX    TMP DP  RH WIND       PRES   REMARKS
DULUTH         LGT SNOW   8   2  76 NW16G25   29.77R BLWGSNOWWCI -10
ELY            LGT SNOW   9   7  92 NW6       29.79R WCI  -1
HIBBING        CLOUDY     4   0  83 NW15      29.84R WCI -14
EVELETH        LGT SNOW   9   3  78 NW12G22   29.83S WCI  -6
DULUTH HARBOR  CLOUDY    14   7  73 NW15      29.85R WCI  -1
TWO HARBORS    LGT SNOW  14   7  73 NW7G22    29.74R WCI   4
SILVER BAY     FLURRIES  14   7  73 NW10G17   29.74R WCI   1
GRAND MARAIS     N/A     11   3  70 VRB5      29.76R WCI   3
G MARAIS ARPRT CLOUDY     3  -2  78 NW8G20    29.67R WCI -10
$$
MNZ029>031-032-039>041-046>048-054>057-064-081400-
   West Central Minnesota

CITY           SKY/WX    TMP DP  RH WIND       PRES   REMARKS
FERGUS FALLS   LGT SNOW  10   7  85 N25G36    30.08R WCI -10
WHEATON        LGT SNOW  14  10  85 NW26G33   30.10F WCI  -6
MORRIS         SNOW      12   7  79 N37G45    30.01S VSB 1/2 WCI -11
ALEXANDRIA     LGT SNOW   8   0  69 N28G36    29.97R WCI -14
ELBOW LAKE     LGT SNOW  10   6  85 NW25G33   30.03S WCI -12
WADENA         LGT SNOW   5   0  78 NW23G32   29.96R WCI -17
GLENWOOD       CLOUDY     9   1  72 NW28G38   29.96R HAZE    WCI -13
APPLETON       LGT SNOW  16  10  79 N35G41    30.04R VSB 1   WCI  -6
BENSON         LGT SNOW  12   7  79 N24G38    30.01R WCI  -8
ORTONVILLE     FLURRIES  14   9  79 N24G33    30.06R WCI  -5
MADISON        LGT SNOW  16  12  86 N28G37    30.06R VSB 3/4 WCI  -4
WILLMAR        LGT SNOW  12   7  79 NW26G32   29.98R WCI  -8
$$
MNZ033>034-036-042>043-049>051-058-059-081400-
   Central Minnesota

CITY           SKY/WX    TMP DP  RH WIND       PRES   REMARKS
ST CLOUD       CLOUDY     8   1  73 NW14G25   29.91R WCI  -8
SAUK CENTRE    LGT SNOW   8   3  80 NW20G28   29.95R WCI -12
PAYNESVILLE    CLOUDY     9   3  75 NW18G26   29.95R WCI  -9
AITKIN         MIX PCPN   7  -2  66 NW8       29.89R WCI  -6
PINE RIVER     FLURRIES   7   0  72 NW16G23   29.96R WCI -11
BRAINERD       LGT SNOW   6   0  76 NW18      29.92R WCI -13
STAPLES        LGT SNOW   5   1  85 NW17      29.95R WCI -14
LONG PRAIRIE   LGT SNOW   7   1  78 NW21G30   29.94R WCI -13
LITTLE FALLS   PTCLDY     9   0  66 NW12G22   29.94R WCI  -6
LITCHFIELD     CLOUDY    10   5  79 NW22G28   29.93S WCI  -9
BUFFALO        CLOUDY    10   3  72 NW18G24   29.92R WCI  -8
MAPLE LAKE     CLOUDY    11   5  77 NW16G24   29.92R WCI  -6
$$
MNZ037-044-045-052-053-081400-
   East Central Minnesota

CITY           SKY/WX    TMP DP  RH WIND       PRES   REMARKS
PRINCETON      CLOUDY    10   3  72 NW16G24   29.90R WCI  -7
MORA           CLOUDY    10   3  72 NW17G28   29.90R WCI  -7
CAMBRIDGE      CLOUDY    12   1  62 NW16      29.87R WCI  -4
RUSH CITY      CLOUDY    11   3  71 NW12G21   29.86S WCI  -4
MOOSE LAKE     CLOUDY     9   1  72 NW8       29.84R WCI  -4
HINCKLEY       FLURRIES  10   5  79 NW17G24   29.85R WCI  -7
CLOQUET        LGT SNOW   9   1  72 NW13G23   29.81R WCI  -7
MCGREGOR       CLOUDY     9   1  72 NW14      29.88R WCI  -8
$$
MNZ071>073-080-081-089-090-097-098-081400-
   Southwest Minnesota

CITY           SKY/WX    TMP DP  RH WIND       PRES   REMARKS
MONTEVIDEO     LGT SNOW  12  10  92 N30G40    30.03R WCI  -9
GRANITE FALLS  LGT SNOW  15  11  85 NW20G36   30.03R VSB 1   WCI  -3
CANBY          CLOUDY    19  14  82 NW23G30   30.06R WCI   1
MARSHALL       LGT SNOW  14  10  85 N31G48    30.00R VSB 3/4 WCI  -7
REDWOOD FALLS  LGT SNOW  13   8  81 NW22G31   29.98R WCI  -6
OLIVIA         LGT SNOW  12   9  85 N25G33    29.97R WCI  -8
PIPESTONE      CLEAR     18   9  68 N28G38    30.00R WCI  -1
WINDOM         HVY SNOW  12  10  92 NW37G46   29.92R VSB 1/4 WCI -11
WORTHINGTON    CLOUDY   N/A N/A N/A NW32G41   29.96R VSB 3/4
JACKSON        CLOUDY    14  10  85 NW30G36   29.91S WCI  -7
TRACY          LGT SNOW  15  13  90 N31G40    29.99R VSB 3/4 WCI  -6
SLAYTON        LGT SNOW  14  12  94 NW29G40   29.97R VSB 1   WCI  -7
$$
MNZ065>067-074>077-082>085-091>093-081400-
   South Central Minnesota

CITY           SKY/WX    TMP DP  RH WIND       PRES   REMARKS
MANKATO        CLOUDY   N/A N/A N/A NW29G37   29.88F
NEW ULM        CLOUDY    10   5  79 NW25      29.92R WCI -10
ST JAMES       SNOW      12  10  92 NW31      29.94R VSB 1/2 WCI -10
FAIRMONT       CLOUDY   N/A N/A N/A NW29G36   29.88S
GLENCOE        CLOUDY    11   6  80 NW21G26   29.91R HAZE    WCI  -7
FARIBAULT      CLOUDY    10   7  85 NW14G25   29.86R HAZE    WCI  -5
OWATONNA       LGT SNOW  10   7  85 NW21G26   29.84R WCI  -9
WASECA         LGT SNOW  12   9  85 NW21G35   29.88R WCI  -6
ALBERT LEA     LGT SNOW  10   7  85 NW16G23   29.83R WCI  -7
$$
MNZ078>079-086>088-094>096-081400-
   Southeast Minnesota

CITY           SKY/WX    TMP DP  RH WIND       PRES   REMARKS
ROCHESTER      LGT SNOW  12   8  84 NW24      29.77R FOG     WCI  -8
RED WING       FLURRIES  16   7  67 NW9G18    29.82R WCI   4
STANTON        CLOUDY    15   7  73 NW15G23   29.84R WCI  -1
DODGE CENTER   LGT SNOW  10   9  92 NW18G24   29.79R WCI  -8
WINONA         CLOUDY    19  12  73 NW21G28   29.78R WCI   3
AUSTIN         LGT SNOW  10   9  92 NW18G26   29.80R WCI  -8
PRESTON        FLURRIES  13   8  80 N17G24    29.75R WCI  -4
$$
ABBREVIATIONS USED IN REMARKS
   TC - TEMPERATURES IN CELSIUS
  WCI - WIND CHILL INDEX
   HX - HEAT INDEX
  VSB - VISIBILITY
$$




USA.gov is the U.S. government's official web portal to all federal, state and local government web resources and services.